This is the latest recevied weather packets stored in our database for station/object KC3ULW-13. If no packets are shown the sender has not sent any weather packets the latest 10 day(s).
| Time | Temp. | Humidity | Pressure | Rain* | Wind** | Luminosity | Snow |
|---|---|---|---|---|---|---|---|
| 1777300492 | 16.67° C | 49% | 1024.1 hPa | 0 mm | - | 623 W/m² | - |
| 1777300190 | 16.67° C | 50% | 1024 hPa | 0 mm | - | 622 W/m² | - |
| 1777299886 | 16.11° C | 51% | 1024 hPa | 0 mm | - | 602 W/m² | - |
| 1777299583 | 16.11° C | 52% | 1024.2 hPa | 0 mm | - | 603 W/m² | - |
| 1777299281 | 16.11° C | 52% | 1024.2 hPa | 0 mm | - | 573 W/m² | - |
| 1777298978 | 15.56° C | 53% | 1024.4 hPa | 0 mm | - | 568 W/m² | - |
| 1777298675 | 15.56° C | 54% | 1024.5 hPa | 0 mm | - | 554 W/m² | - |
| 1777298371 | 15.56° C | 54% | 1024.4 hPa | 0 mm | - | 534 W/m² | - |
| 1777298068 | 15° C | 54% | 1024.4 hPa | 0 mm | - | 519 W/m² | - |
| 1777297767 | 15° C | 54% | 1024.5 hPa | 0 mm | - | 489 W/m² | - |
| 1777297466 | 15° C | 54% | 1024.5 hPa | 0 mm | - | 469 W/m² | - |
| 1777297162 | 14.44° C | 55% | 1024.5 hPa | 0 mm | - | 452 W/m² | - |
| 1777296860 | 14.44° C | 56% | 1024.4 hPa | 0 mm | - | 400 W/m² | - |
| 1777296555 | 14.44° C | 57% | 1024.4 hPa | 0 mm | - | 356 W/m² | - |
| 1777296221 | 14.44° C | 59% | 1024.3 hPa | 0 mm | - | 336 W/m² | - |
| 1777295917 | 13.89° C | 59% | 1024.6 hPa | 0 mm | - | 313 W/m² | - |
| 1777295614 | 13.89° C | 60% | 1024.7 hPa | 0 mm | - | 296 W/m² | - |
| 1777295312 | 13.33° C | 62% | 1024.8 hPa | 0 mm | - | 279 W/m² | - |
| 1777295010 | 13.33° C | 62% | 1024.7 hPa | 0 mm | - | 252 W/m² | - |
| 1777294706 | 12.78° C | 63% | 1024.6 hPa | 0 mm | - | 49 W/m² | - |
| 1777294401 | 12.78° C | 64% | 1024.5 hPa | 0 mm | - | 177 W/m² | - |
| 1777294098 | 12.78° C | 66% | 1024.7 hPa | 0 mm | - | 58 W/m² | - |
| 1777293790 | 12.22° C | 67% | 1024.7 hPa | 0 mm | - | 51 W/m² | - |
| 1777293490 | 11.67° C | 71% | 1024.7 hPa | 0 mm | - | 153 W/m² | - |
| 1777293186 | 10° C | 76% | 1024.6 hPa | 0 mm | - | 118 W/m² | - |
* Rain latest hour (hover to see other rain measurements)
** Current wind speed in m/s (hover to see current wind gust speed)